STARLINK-32438, 61722

Orbit data source: Space-Track

STARLINK-32438, 61722 is a payload satellite owned by SpaceX/Seattle (US) in LEO that was launched on Wed, 30 Oct 2024 UTC via an FALCON 9 launch vehicle from the Air Force Eastern Test Range (AFETR). Payload-class satellites include a variety of spacecraft equipped with specific instruments for various scientific and technological missions. These include communications satellites like Starlink; space stations such as the ISS; scientific satellites like the Hubble; Earth observation satellites from companies like Planet Labs, Umbra, and HawkEye 360; GPS; miniature CubeSats for education and research; and military/defense satellites.

Loading next visibility...
Identifier
61722, 2024-196R
Orbit
LEO
Last TLE update
14 hours ago
Origin
Manufacturer
SpaceX/Seattle
Mission
Operational Commercial Communications
Bus & Motor
STARLINK V2M, Unknown motor
Mass
730 kg wet, ~700 kg dry
Launch date (UTC)
2024-10-30 (8 months ago)
Launch vehicle
FALCON 9
Launch site
Air Force Eastern Test Range (AFETR)
Object type
Payload
Rocket body
Debris
Shape & HBR
Box + 2 Pan, 29 m
Radar Cross Section
36.964 m², Large (>1 m²)

Expand to show TLE details & history

TLE from 14 hours ago
0 STARLINK-32438
1 61722U 24196R   25181.51258363  .00002050  00000-0  81300-4 0  9993
2 61722  53.1601 192.9261 0000933  84.9171 275.1937 15.30208662 38548
Epoch: 2025-06-30T12:18Z
TLE epoch observation values (Epoch: 2025-06-30T12:18:07.225Z)
Latitude
0.00003°
Longitude
89.5747°
Altitude
476.031 km
Speed
7.629 km/s
True Right ascension
12h 51m 42s
True Declination
0° 00' 00"
Sunlit
Object was in daylight at epoch
Visualization orbit readout
Latitude
-19.60348°
Longitude
71.47655°
Altitude
480.841 km
Speed
7.625 km/s
Apparent Right ascension
08h 24m 19s
Apparent Declination
-60° 11' 37"
Sunlit
Object is in daylight
Visualization observer readout
Local Sidereal Time
13:55:15
Azimuth
214.936° SW
Elevation
-30.568°
Doppler factor
1
Orbital elements
Apogee altitude
476.085 km
Perigee altitude
474.806 km
Semi-major axis
6,853.583 km
Eccentricity
0.00009
Inclination
53.1601°
RAAN
192.9261°
Arg. of periapsis
84.9171°
True anomaly
Unknown
Mean anomaly
275.1937°
Eccentric anomaly
Unknown
Mean motion
3.82531 °/min
Orbital period
94.11 mins
BSTAR
0.0000813
Loading maneuver chart data...
Loading SW <> Apogee altitude chart data...
Loading historical data...
Loading historical data...
Loading historical data...
Loading historical data...
Loading historical data...
Loading historical data...
Loading historical data...

STARLINK-32438 Visibility forecast

Observer location: undefined°, undefined°

Span
Click to sort rows by Start time (UTC) header in descending order
Start Az.
Max El. time (UTC)
Max El. Az.
Max El.
End time (UTC)
End Az.
5 mins2025-07-01 02:34:08.927Z173.917° S2025-07-01 02:36:08.927Z133.498° SE20.932°2025-07-01 02:39:08.927Z77.471° E
5 mins2025-07-01 04:12:08.927Z266.82° W2025-07-01 04:14:08.927Z332.965° NNW33.936°2025-07-01 04:17:08.927Z36.882° NE
4 mins2025-07-01 09:09:08.927Z346.183° N2025-07-01 09:11:08.927Z34.568° NE22.995°2025-07-01 09:13:08.927Z76.342° E
5 mins2025-07-01 10:47:08.927Z287.234° WNW2025-07-01 10:49:08.927Z214.215° SW36.223°2025-07-01 10:52:08.927Z151.97° SSE
|